Hourly Weather Klanino

Today, 25 July, Sunday

Time Temperature Precipitation Wind Pressure Humidity
00:00 +17°C° 0 mm 4 mps 759 mmHg 81%
01:00 +17°C° 0 mm 4 mps 759 mmHg 81%
02:00 +17°C° 0 mm 4 mps 758 mmHg 82%
03:00 +17°C° 0 mm 3 mps 758 mmHg 84%
04:00 +17°C° 0 mm 3 mps 758 mmHg 85%
05:00 +19°C° 0 mm 4 mps 758 mmHg 77%
06:00 +21°C° 0 mm 4 mps 758 mmHg 69%
07:00 +22°C° 0 mm 4 mps 758 mmHg 62%
08:00 +25°C° 0 mm 5 mps 758 mmHg 57%
09:00 +26°C° 0 mm 5 mps 758 mmHg 52%
10:00 +27°C° 0 mm 5 mps 758 mmHg 47%
11:00 +28°C° 0 mm 6 mps 758 mmHg 46%
12:00 +29°C° 0 mm 6 mps 758 mmHg 44%
13:00 +30°C° 0 mm 6 mps 758 mmHg 43%
14:00 +29°C° 0 mm 6 mps 757 mmHg 47%
15:00 +28°C° 0 mm 6 mps 757 mmHg 50%
16:00 +28°C° 0 mm 6 mps 757 mmHg 53%
17:00 +26°C° 0.1 mm 5 mps 757 mmHg 60%
18:00 +25°C° 0.1 mm 5 mps 757 mmHg 68%
19:00 +23°C° 0.1 mm 4 mps 757 mmHg 75%
20:00 +22°C° 0 mm 4 mps 757 mmHg 77%
21:00 +22°C° 0 mm 4 mps 757 mmHg 79%
22:00 +21°C° 0 mm 4 mps 757 mmHg 80%
23:00 +21°C° 0 mm 4 mps 757 mmHg 82%

Tomorrow, 26 July, Monday

Time Temperature Precipitation Wind Pressure Humidity
00:00 +20°C° 0 mm 4 mps 757 mmHg 83%
01:00 +19°C° 0 mm 4 mps 757 mmHg 85%
02:00 +19°C° 0 mm 4 mps 757 mmHg 84%
03:00 +19°C° 0 mm 4 mps 757 mmHg 83%
04:00 +18°C° 0 mm 4 mps 757 mmHg 83%
05:00 +20°C° 0 mm 4 mps 757 mmHg 75%
06:00 +22°C° 0 mm 4 mps 757 mmHg 68%
07:00 +25°C° 0 mm 4 mps 758 mmHg 60%
08:00 +26°C° 0 mm 4 mps 758 mmHg 55%
09:00 +28°C° 0 mm 4 mps 758 mmHg 49%
10:00 +29°C° 0 mm 5 mps 758 mmHg 43%
11:00 +29°C° 0 mm 5 mps 758 mmHg 46%
12:00 +28°C° 0 mm 5 mps 757 mmHg 49%
13:00 +27°C° 0 mm 5 mps 757 mmHg 52%
14:00 +27°C° 0 mm 5 mps 757 mmHg 53%
15:00 +27°C° 0 mm 5 mps 757 mmHg 54%
16:00 +27°C° 0 mm 5 mps 757 mmHg 55%
17:00 +26°C° 0 mm 5 mps 756 mmHg 59%
18:00 +25°C° 0 mm 5 mps 756 mmHg 62%
19:00 +25°C° 0 mm 5 mps 756 mmHg 66%
20:00 +23°C° 0 mm 4 mps 756 mmHg 72%
21:00 +22°C° 0 mm 4 mps 756 mmHg 79%
22:00 +21°C° 0 mm 4 mps 756 mmHg 85%
23:00 +20°C° 0 mm 4 mps 756 mmHg 88%

Day after tomorrow, 27 July, Tuesday

Time Temperature Precipitation Wind Pressure Humidity
00:00 +20°C° 0 mm 4 mps 756 mmHg 91%
01:00 +19°C° 0 mm 4 mps 755 mmHg 94%
02:00 +19°C° 0 mm 4 mps 755 mmHg 94%
03:00 +19°C° 0 mm 3 mps 755 mmHg 95%
04:00 +18°C° 0 mm 3 mps 755 mmHg 96%
05:00 +20°C° 0.1 mm 2 mps 755 mmHg 90%
06:00 +21°C° 0.1 mm 2 mps 755 mmHg 84%
07:00 +23°C° 0.1 mm 2 mps 755 mmHg 79%
08:00 +25°C° 0.1 mm 2 mps 755 mmHg 75%
09:00 +26°C° 0.1 mm 2 mps 755 mmHg 71%
10:00 +27°C° 0.1 mm 2 mps 755 mmHg 67%
11:00 +27°C° 0.3 mm 2 mps 755 mmHg 63%
12:00 +28°C° 0.3 mm 3 mps 755 mmHg 59%
13:00 +28°C° 0.3 mm 3 mps 755 mmHg 55%
14:00 +28°C° 0 mm 4 mps 755 mmHg 55%
15:00 +28°C° 0 mm 5 mps 755 mmHg 54%
16:00 +28°C° 0 mm 6 mps 755 mmHg 53%
17:00 +27°C° 0.1 mm 5 mps 755 mmHg 59%
18:00 +25°C° 0.1 mm 5 mps 755 mmHg 64%
19:00 +23°C° 0.1 mm 4 mps 755 mmHg 70%
20:00 +22°C° 0 mm 4 mps 755 mmHg 73%
21:00 +21°C° 0 mm 4 mps 755 mmHg 76%
22:00 +20°C° 0 mm 3 mps 755 mmHg 78%
23:00 +19°C° 0 mm 3 mps 755 mmHg 79%

28 July, Wednesday

Time Temperature Precipitation Wind Pressure Humidity
00:00 +19°C° 0 mm 4 mps 755 mmHg 80%
01:00 +19°C° 0 mm 4 mps 755 mmHg 81%
02:00 +18°C° 0 mm 4 mps 755 mmHg 83%
03:00 +18°C° 0 mm 4 mps 755 mmHg 85%
04:00 +18°C° 0 mm 3 mps 755 mmHg 87%
05:00 +20°C° 0 mm 3 mps 755 mmHg 79%
06:00 +21°C° 0 mm 4 mps 755 mmHg 71%
07:00 +23°C° 0 mm 4 mps 755 mmHg 64%
08:00 +26°C° 0 mm 4 mps 755 mmHg 58%
09:00 +27°C° 0 mm 4 mps 755 mmHg 52%
10:00 +28°C° 0 mm 4 mps 755 mmHg 45%
11:00 +28°C° 0.1 mm 4 mps 755 mmHg 46%
12:00 +28°C° 0.1 mm 5 mps 755 mmHg 47%
13:00 +27°C° 0.1 mm 6 mps 755 mmHg 48%
14:00 +27°C° 0 mm 5 mps 755 mmHg 49%
15:00 +27°C° 0 mm 5 mps 755 mmHg 50%
16:00 +26°C° 0 mm 4 mps 755 mmHg 52%
17:00 +25°C° 0.1 mm 4 mps 755 mmHg 60%
18:00 +22°C° 0.1 mm 4 mps 755 mmHg 68%
19:00 +20°C° 0.1 mm 3 mps 755 mmHg 76%
20:00 +19°C° 0 mm 4 mps 755 mmHg 81%
21:00 +17°C° 0 mm 5 mps 756 mmHg 86%
22:00 +17°C° 0 mm 5 mps 756 mmHg 91%
23:00 +16°C° 0 mm 5 mps 756 mmHg 92%

29 July, Thursday

Time Temperature Precipitation Wind Pressure Humidity
00:00 +16°C° 0 mm 5 mps 756 mmHg 94%
01:00 +16°C° 0 mm 5 mps 756 mmHg 96%
02:00 +16°C° 0 mm 5 mps 756 mmHg 96%
03:00 +15°C° 0 mm 5 mps 756 mmHg 96%
04:00 +15°C° 0 mm 4 mps 756 mmHg 96%
05:00 +18°C° 0 mm 4 mps 756 mmHg 89%
06:00 +19°C° 0 mm 4 mps 756 mmHg 82%
07:00 +21°C° 0 mm 4 mps 756 mmHg 75%
08:00 +23°C° 0 mm 4 mps 756 mmHg 65%
09:00 +25°C° 0 mm 3 mps 756 mmHg 55%
10:00 +27°C° 0 mm 3 mps 756 mmHg 46%
11:00 +28°C° 0 mm 3 mps 756 mmHg 44%
12:00 +28°C° 0 mm 3 mps 755 mmHg 43%
13:00 +29°C° 0 mm 4 mps 755 mmHg 42%
14:00 +28°C° 0 mm 3 mps 755 mmHg 44%
15:00 +28°C° 0 mm 3 mps 755 mmHg 45%
16:00 +28°C° 0 mm 3 mps 755 mmHg 46%
17:00 +27°C° 0 mm 3 mps 754 mmHg 49%
18:00 +26°C° 0 mm 3 mps 754 mmHg 51%
19:00 +26°C° 0 mm 2 mps 754 mmHg 54%
20:00 +24°C° 0 mm 3 mps 754 mmHg 60%
21:00 +22°C° 0 mm 3 mps 754 mmHg 66%
22:00 +21°C° 0 mm 4 mps 755 mmHg 73%
23:00 +20°C° 0 mm 4 mps 755 mmHg 76%

30 July, Friday

Time Temperature Precipitation Wind Pressure Humidity
00:00 +20°C° 0 mm 4 mps 755 mmHg 79%
01:00 +19°C° 0 mm 5 mps 755 mmHg 82%
02:00 +17°C° 0 mm 5 mps 755 mmHg 85%
03:00 +17°C° 0 mm 4 mps 755 mmHg 88%
04:00 +15°C° 0 mm 4 mps 755 mmHg 92%
05:00 +17°C° 0 mm 5 mps 755 mmHg 81%
06:00 +19°C° 0 mm 6 mps 756 mmHg 71%
07:00 +21°C° 0 mm 6 mps 756 mmHg 61%
08:00 +22°C° 0 mm 6 mps 756 mmHg 52%
09:00 +24°C° 0 mm 6 mps 755 mmHg 44%
10:00 +26°C° 0 mm 6 mps 755 mmHg 35%
11:00 +27°C° 0 mm 6 mps 755 mmHg 34%
12:00 +27°C° 0 mm 6 mps 755 mmHg 33%
13:00 +28°C° 0 mm 6 mps 755 mmHg 33%
14:00 +27°C° 0 mm 7 mps 754 mmHg 35%
15:00 +27°C° 0 mm 7 mps 754 mmHg 37%
16:00 +26°C° 0 mm 7 mps 754 mmHg 39%
17:00 +24°C° 0 mm 6 mps 754 mmHg 44%
18:00 +23°C° 0 mm 6 mps 754 mmHg 48%
19:00 +21°C° 0 mm 5 mps 754 mmHg 53%
20:00 +20°C° 0 mm 5 mps 754 mmHg 58%
21:00 +18°C° 0 mm 4 mps 754 mmHg 63%
22:00 +17°C° 0 mm 4 mps 754 mmHg 67%
23:00 +15°C° 0 mm 4 mps 754 mmHg 72%
Show more